Weather History for LEPP - October, 2013

Change the Weather History Date:

Monday, October 7, 2013

  Actual Average Record
Temperature  
Mean Temperature 60 °F -  
Max Temperature 69 °F 61 °F 77 °F (2010)
Min Temperature 50 °F 46 °F 41 °F (2003)
Degree Days  
Heating Degree Days 6    
Growing Degree Days 10 (Base 50)    
Moisture  
Dew Point 51 °F    
Average Humidity 70    
Maximum Humidity 94    
Minimum Humidity 49    
Precipitation  
Precipitation 0.00 in - - ()
Sea Level Pressure  
Sea Level Pressure 30.22 in    
Wind  
Wind Speed 6 mph ()    
Max Wind Speed 15 mph    
Max Gust Speed 17 mph    
Visibility 6.2 miles    
Events      
Averages and records for this station are not official NWS values.
T = Trace of Precipitation, MM = Missing Value Source: Averaged Metar Reports

Daily Weather History Graph

Daily Weather History Graph

Search for Another Location

Airport or City:

Trip Planner

Search our weather history database for the weather conditions in past years. The results will help you decide how hot, cold, wet, or windy it might be!

Date:

Astronomy

Oct. 07, 2013 Rise Set
Actual Time 8:10 AM CEST 7:37 PM CEST
Civil Twilight 7:42 AM CEST 8:05 PM CEST
Nautical Twilight 7:09 AM CEST 8:38 PM CEST
Astronomical Twilight 6:36 AM CEST 9:11 PM CEST
Moon 10:48 AM CEST 9:06 PM CEST
Length of Visible Light 12h 23m
Length of Day
11h 26m
Waxing Crescent, 7% of the Moon is Illuminated
Oct 7
Waxing Crescent
Oct 12
First Quarter
Oct 19
Full
Oct 27
Last Quarter
Nov 3
New

Hourly Weather History & Observations

Time (CEST) Temp. Dew Point Humidity Pressure Visibility Wind Dir Wind Speed Gust Speed Precip Events Conditions
12:00 AM 59.0 °F 50.0 °F 72% 30.27 in 6.2 mi North 9.2 mph - N/A   Scattered Clouds
5:30 AM 55.4 °F 50.0 °F 82% 30.21 in - NW 8.1 mph - N/A   Clear
6:00 AM 55.4 °F 50.0 °F 82% 30.21 in - NW 8.1 mph - N/A   Clear
6:30 AM 55.4 °F 50.0 °F 82% 30.21 in - NW 6.9 mph - N/A   Clear
7:00 AM 53.6 °F 50.0 °F 88% 30.21 in - NW 4.6 mph - N/A   Clear
7:30 AM 53.6 °F 48.2 °F 82% 30.21 in - North 3.5 mph - N/A   Clear
8:00 AM 53.6 °F 48.2 °F 82% 30.21 in - NNW 1.2 mph - N/A   Clear
8:30 AM 50.0 °F 46.4 °F 87% 30.21 in - Calm Calm - N/A   Clear
9:00 AM 50.0 °F 48.2 °F 94% 30.21 in - Calm Calm - N/A   Clear
9:30 AM 55.4 °F 50.0 °F 82% 30.24 in - Calm Calm - N/A   Clear
10:00 AM 59.0 °F 50.0 °F 72% 30.24 in - Calm Calm - N/A   Clear
10:30 AM 59.0 °F 50.0 °F 72% 30.24 in - Variable 2.3 mph - N/A   Clear
11:00 AM 60.8 °F 50.0 °F 68% 30.24 in - NW 4.6 mph - N/A   Clear
11:30 AM 62.6 °F 50.0 °F 63% 30.24 in - NNW 5.8 mph - N/A   Clear
12:00 PM 64.4 °F 50.0 °F 59% 30.24 in - NW 6.9 mph - N/A   Clear
12:30 PM 66.2 °F 51.8 °F 60% 30.24 in - NW 3.5 mph - N/A   Clear
1:00 PM 66.2 °F 50.0 °F 56% 30.24 in - WNW 5.8 mph - N/A   Clear
1:30 PM 68.0 °F 50.0 °F 52% 30.21 in - WNW 5.8 mph 17.3 mph N/A   Clear
2:00 PM 68.0 °F 50.0 °F 52% 30.21 in 6.2 mi NW 9.2 mph - N/A   Partly Cloudy
2:30 PM 69.8 °F 51.8 °F 53% 30.21 in 6.2 mi WNW 6.9 mph - N/A   Partly Cloudy
3:00 PM 68.0 °F 51.8 °F 56% 30.21 in 6.2 mi NW 11.5 mph - N/A   Partly Cloudy
3:30 PM 69.8 °F 50.0 °F 49% 30.18 in 6.2 mi NW 10.4 mph - N/A   Partly Cloudy
4:00 PM 68.0 °F 50.0 °F 52% 30.18 in 6.2 mi NW 13.8 mph - N/A   Partly Cloudy
4:30 PM 68.0 °F 50.0 °F 52% 30.18 in 6.2 mi NNW 15.0 mph - N/A   Partly Cloudy
5:00 PM 68.0 °F 51.8 °F 56% 30.18 in 6.2 mi NNW 13.8 mph - N/A   Partly Cloudy
5:30 PM 68.0 °F 51.8 °F 56% 30.18 in 6.2 mi NNW 12.7 mph - N/A   Partly Cloudy
6:00 PM 66.2 °F 50.0 °F 56% 30.18 in 6.2 mi NW 12.7 mph - N/A   Partly Cloudy
6:30 PM 66.2 °F 51.8 °F 60% 30.18 in 6.2 mi NW 12.7 mph - N/A   Partly Cloudy
7:00 PM 62.6 °F 51.8 °F 68% 30.18 in 6.2 mi NNW 13.8 mph - N/A   Partly Cloudy
7:30 PM 62.6 °F 51.8 °F 68% 30.21 in - NW 10.4 mph - N/A   Clear
8:00 PM 60.8 °F 51.8 °F 72% 30.21 in - NW 8.1 mph - N/A   Clear
8:30 PM 59.0 °F 51.8 °F 77% 30.21 in - NW 4.6 mph - N/A   Clear
9:00 PM 59.0 °F 51.8 °F 77% 30.21 in - Variable 2.3 mph - N/A   Clear
9:30 PM 57.2 °F 51.8 °F 82% 30.24 in - Variable 2.3 mph - N/A   Clear
10:00 PM 57.2 °F 51.8 °F 82% 30.24 in - WNW 3.5 mph - N/A   Clear
10:30 PM 55.4 °F 51.8 °F 88% 30.24 in - WNW 2.3 mph - N/A   Clear
11:00 PM 55.4 °F 51.8 °F 88% 30.24 in - NW 2.3 mph - N/A   Clear
11:30 PM 55.4 °F 51.8 °F 88% 30.24 in - Variable 2.3 mph - N/A   Clear